Time,TemperatureF,DewpointF,PressureIn,WindDirection,WindDirectionDegrees,WindSpeedMPH,WindSpeedGustMPH,Humidity,HourlyPrecipIn,Conditions,Clouds,dailyrainin,SolarRadiationWatts/m^2,SoftwareType,DateUTC
2013-03-07 00:02:00,26.8,16.2,30.21,ENE,68,3.6,5.8,64,0.00,CLR,SCT,0.00,0.0,WeatherDisplay:10.37,2013-03-07 06:02:00,
2013-03-07 00:07:00,26.6,16.1,30.21,ESE,112,4.3,5.8,64,0.00,CLR,SCT,0.00,0.0,WeatherDisplay:10.37,2013-03-07 06:07:00,
2013-03-07 00:12:00,26.6,16.4,30.21,ESE,112,2.9,3.5,65,0.00,CLR,SCT,0.00,0.0,WeatherDisplay:10.37,2013-03-07 06:12:00,
2013-03-07 00:17:00,26.4,15.9,30.21,ESE,112,3.3,6.0,64,0.00,CLR,SCT,0.00,0.0,WeatherDisplay:10.37,2013-03-07 06:17:00,
2013-03-07 00:23:00,26.4,16.2,30.21,ESE,112,3.6,5.8,65,0.00,CLR,SCT,0.00,0.0,WeatherDisplay:10.37,2013-03-07 06:23:00,
2013-03-07 00:28:00,26.2,16.1,30.24,ESE,112,4.0,6.9,65,0.00,CLR,SCT,0.00,0.0,WeatherDisplay:10.37,2013-03-07 06:28:00,
2013-03-07 00:33:00,26.1,15.9,30.24,ESE,112,2.9,5.8,65,0.00,CLR,SCT,0.00,0.0,WeatherDisplay:10.37,2013-03-07 06:33:00,
2013-03-07 00:38:00,26.1,15.9,30.24,ESE,112,3.8,5.8,65,0.00,CLR,SCT,0.00,0.0,WeatherDisplay:10.37,2013-03-07 06:38:00,
2013-03-07 00:43:00,26.1,16.2,30.21,ESE,112,3.8,4.7,66,0.00,CLR,SCT,0.00,0.0,WeatherDisplay:10.37,2013-03-07 06:43:00,
2013-03-07 00:48:00,25.9,16.1,30.21,ESE,112,3.8,5.8,66,0.00,CLR,SCT,0.00,0.0,WeatherDisplay:10.37,2013-03-07 06:48:00,
2013-03-07 00:53:00,25.9,16.1,30.21,ESE,112,4.0,5.9,66,0.00,CLR,SCT,0.00,0.0,WeatherDisplay:10.37,2013-03-07 06:53:00,
2013-03-07 00:58:00,25.9,16.4,30.24,East,90,4.5,6.9,67,0.00,CLR,SCT,0.00,0.0,WeatherDisplay:10.37,2013-03-07 06:58:00,
2013-03-07 01:03:00,25.7,16.3,30.24,ESE,112,4.3,5.9,67,0.00,CLR,SCT,0.00,0.0,WeatherDisplay:10.37,2013-03-07 07:03:00,
2013-03-07 01:08:00,25.7,16.6,30.24,ESE,112,4.3,5.8,68,0.00,CLR,SCT,0.00,0.0,WeatherDisplay:10.37,2013-03-07 07:08:00,
2013-03-07 01:13:00,25.7,16.6,30.21,ESE,112,5.6,5.8,68,0.00,CLR,SCT,0.00,0.0,WeatherDisplay:10.37,2013-03-07 07:13:00,
2013-03-07 01:18:00,25.5,16.4,30.21,ESE,112,4.9,9.2,68,0.00,CLR,SCT,0.00,0.0,WeatherDisplay:10.37,2013-03-07 07:18:00,
2013-03-07 01:24:00,25.5,16.8,30.21,East,90,5.4,6.9,69,0.00,CLR,SCT,0.00,0.0,WeatherDisplay:10.37,2013-03-07 07:24:00,
2013-03-07 01:29:00,25.5,16.8,30.21,ESE,112,4.9,8.1,69,0.00,CLR,SCT,0.00,0.0,WeatherDisplay:10.37,2013-03-07 07:29:00,
2013-03-07 01:34:00,25.3,16.6,30.21,ESE,112,4.5,6.9,69,0.00,CLR,SCT,0.00,0.0,WeatherDisplay:10.37,2013-03-07 07:34:00,
2013-03-07 01:39:00,25.3,16.6,30.21,ENE,68,3.8,5.8,69,0.00,CLR,SCT,0.00,0.0,WeatherDisplay:10.37,2013-03-07 07:39:00,
2013-03-07 01:44:00,25.3,16.6,30.21,ENE,68,5.4,6.9,69,0.00,CLR,SCT,0.00,0.0,WeatherDisplay:10.37,2013-03-07 07:44:00,
2013-03-07 01:49:00,25.3,16.6,30.21,ESE,112,4.5,5.8,69,0.00,CLR,SCT,0.00,0.0,WeatherDisplay:10.37,2013-03-07 07:49:00,
2013-03-07 01:54:00,25.3,16.6,30.21,ENE,68,4.5,5.8,69,0.00,CLR,SCT,0.00,0.0,WeatherDisplay:10.37,2013-03-07 07:54:00,
2013-03-07 01:59:00,25.3,16.6,30.21,ENE,68,4.3,6.2,69,0.00,CLR,SCT,0.00,0.0,WeatherDisplay:10.37,2013-03-07 07:59:00,
2013-03-07 02:04:00,25.2,16.4,30.21,ESE,112,4.9,7.1,69,0.00,CLR,SCT,0.00,0.0,WeatherDisplay:10.37,2013-03-07 08:04:00,
2013-03-07 02:10:00,25.2,16.4,30.21,ESE,112,5.9,5.9,69,0.00,CLR,SCT,0.00,0.0,WeatherDisplay:10.37,2013-03-07 08:10:00,
2013-03-07 02:15:00,25.0,16.2,30.21,ESE,106,5.0,9.0,69,0.00,CLR,SCT,0.00,0.0,WeatherDisplay:10.37,2013-03-07 08:15:00,
2013-03-07 02:20:00,25.0,16.2,30.21,ESE,112,5.9,6.9,69,0.00,CLR,SCT,0.00,0.0,WeatherDisplay:10.37,2013-03-07 08:20:00,
2013-03-07 02:25:00,24.8,16.4,30.24,ESE,112,4.7,5.8,70,0.00,CLR,SCT,0.00,0.0,WeatherDisplay:10.37,2013-03-07 08:25:00,
2013-03-07 02:30:00,24.8,16.4,30.24,ESE,112,5.6,7.4,70,0.00,CLR,SCT,0.00,0.0,WeatherDisplay:10.37,2013-03-07 08:30:00,
2013-03-07 02:35:00,24.8,16.4,30.24,ESE,112,4.7,8.7,70,0.00,CLR,SCT,0.00,0.0,WeatherDisplay:10.37,2013-03-07 08:35:00,
2013-03-07 02:40:00,24.6,16.2,30.21,ESE,112,4.7,6.4,70,0.00,CLR,SCT,0.00,0.0,WeatherDisplay:10.37,2013-03-07 08:40:00,
2013-03-07 02:45:00,24.6,16.2,30.21,ESE,112,5.6,6.9,70,0.00,CLR,SCT,0.00,0.0,WeatherDisplay:10.37,2013-03-07 08:45:00,
2013-03-07 02:50:00,24.6,16.6,30.21,ESE,112,4.9,5.6,71,0.00,CLR,SCT,0.00,0.0,WeatherDisplay:10.37,2013-03-07 08:50:00,
2013-03-07 02:56:00,24.6,16.6,30.21,SE,135,6.2,6.9,71,0.00,CLR,SCT,0.00,0.0,WeatherDisplay:10.37,2013-03-07 08:56:00,
2013-03-07 03:01:00,24.6,16.6,30.21,ESE,112,5.6,5.9,71,0.00,CLR,SCT,0.00,0.0,WeatherDisplay:10.37,2013-03-07 09:01:00,
2013-03-07 03:06:00,24.4,16.4,30.21,East,90,5.6,9.2,71,0.00,CLR,SCT,0.00,0.0,WeatherDisplay:10.37,2013-03-07 09:06:00,
2013-03-07 03:11:00,24.4,16.4,30.21,ESE,112,3.8,4.6,71,0.00,CLR,SCT,0.00,0.0,WeatherDisplay:10.37,2013-03-07 09:11:00,
2013-03-07 03:16:00,24.4,16.4,30.21,ESE,112,4.5,8.1,71,0.00,CLR,SCT,0.00,0.0,WeatherDisplay:10.37,2013-03-07 09:16:00,
2013-03-07 03:21:00,24.4,16.4,30.21,East,90,6.2,9.2,71,0.00,CLR,SCT,0.00,0.0,WeatherDisplay:10.37,2013-03-07 09:21:00,
2013-03-07 03:26:00,24.3,16.2,30.21,SSE,158,6.7,8.1,71,0.00,CLR,SCT,0.00,0.0,WeatherDisplay:10.37,2013-03-07 09:26:00,
2013-03-07 03:31:00,24.3,16.2,30.21,ESE,112,6.0,8.1,71,0.00,CLR,SCT,0.00,0.0,WeatherDisplay:10.37,2013-03-07 09:31:00,
2013-03-07 03:36:00,24.3,16.2,30.21,ENE,68,3.8,6.2,71,0.00,CLR,SCT,0.00,0.0,WeatherDisplay:10.37,2013-03-07 09:36:00,
2013-03-07 03:42:00,24.3,16.2,30.21,East,90,4.5,5.8,71,0.00,CLR,SCT,0.00,0.0,WeatherDisplay:10.37,2013-03-07 09:42:00,
2013-03-07 03:47:00,24.1,16.0,30.21,ESE,112,4.7,6.9,71,0.00,CLR,SCT,0.00,0.0,WeatherDisplay:10.37,2013-03-07 09:47:00,
2013-03-07 03:52:00,24.1,16.0,30.21,ESE,112,4.5,6.9,71,0.00,CLR,SCT,0.00,0.0,WeatherDisplay:10.37,2013-03-07 09:52:00,
2013-03-07 03:57:00,23.9,15.9,30.18,ESE,112,4.5,7.1,71,0.00,CLR,SCT,0.00,0.0,WeatherDisplay:10.37,2013-03-07 09:57:00,
2013-03-07 04:02:00,23.9,15.9,30.18,ESE,112,4.7,6.9,71,0.00,CLR,SCT,0.00,0.0,WeatherDisplay:10.37,2013-03-07 10:02:00,
2013-03-07 04:07:00,23.9,16.2,30.18,ESE,112,4.0,6.4,72,0.00,CLR,SCT,0.00,0.0,WeatherDisplay:10.37,2013-03-07 10:07:00,
2013-03-07 04:12:00,23.9,16.2,30.21,ESE,112,5.4,5.8,72,0.00,CLR,SCT,0.00,0.0,WeatherDisplay:10.37,2013-03-07 10:12:00,
2013-03-07 04:17:00,23.9,16.2,30.21,East,90,4.5,5.8,72,0.00,CLR,SCT,0.00,0.0,WeatherDisplay:10.37,2013-03-07 10:17:00,
2013-03-07 04:22:00,23.9,16.2,30.21,ESE,112,3.8,5.4,72,0.00,CLR,SCT,0.00,0.0,WeatherDisplay:10.37,2013-03-07 10:22:00,
2013-03-07 04:27:00,23.9,15.9,30.21,East,90,4.5,6.0,71,0.00,CLR,SCT,0.00,0.0,WeatherDisplay:10.37,2013-03-07 10:27:00,
2013-03-07 04:32:00,23.7,16.0,30.21,ESE,112,4.9,6.9,72,0.00,CLR,SCT,0.00,0.0,WeatherDisplay:10.37,2013-03-07 10:32:00,
2013-03-07 04:37:00,23.7,16.0,30.21,East,90,4.5,4.9,72,0.00,CLR,SCT,0.00,0.0,WeatherDisplay:10.37,2013-03-07 10:37:00,
2013-03-07 04:43:00,23.7,16.0,30.18,ESE,112,6.4,6.9,72,0.00,CLR,SCT,0.00,0.0,WeatherDisplay:10.37,2013-03-07 10:43:00,
2013-03-07 04:48:00,23.7,16.0,30.18,SE,135,5.6,7.4,72,0.00,CLR,SCT,0.00,0.0,WeatherDisplay:10.37,2013-03-07 10:48:00,
2013-03-07 04:53:00,23.7,16.0,30.18,ESE,112,4.3,6.4,72,0.00,CLR,SCT,0.00,0.0,WeatherDisplay:10.37,2013-03-07 10:53:00,
2013-03-07 04:58:00,23.7,16.0,30.18,East,90,4.5,9.2,72,0.00,CLR,SCT,0.00,0.0,WeatherDisplay:10.37,2013-03-07 10:58:00,
2013-03-07 05:03:00,23.5,15.8,30.18,ENE,68,5.4,8.1,72,0.00,CLR,SCT,0.00,0.0,WeatherDisplay:10.37,2013-03-07 11:03:00,
2013-03-07 05:08:00,23.5,15.8,30.18,ESE,112,4.9,6.9,72,0.00,CLR,SCT,0.00,0.0,WeatherDisplay:10.37,2013-03-07 11:08:00,
2013-03-07 05:13:00,23.5,15.8,30.18,ESE,112,4.9,9.2,72,0.00,CLR,SCT,0.00,0.0,WeatherDisplay:10.37,2013-03-07 11:13:00,
2013-03-07 05:18:00,23.7,16.0,30.18,ESE,112,4.9,9.2,72,0.00,CLR,SCT,0.00,0.0,WeatherDisplay:10.37,2013-03-07 11:18:00,
2013-03-07 05:23:00,23.7,16.0,30.18,ESE,112,4.5,8.1,72,0.00,CLR,SCT,0.00,0.0,WeatherDisplay:10.37,2013-03-07 11:23:00,
2013-03-07 05:28:00,23.5,15.8,30.21,ESE,112,5.9,8.1,72,0.00,CLR,SCT,0.00,0.0,WeatherDisplay:10.37,2013-03-07 11:28:00,
2013-03-07 05:33:00,23.5,15.8,30.21,ESE,112,6.2,6.9,72,0.00,CLR,SCT,0.00,0.0,WeatherDisplay:10.37,2013-03-07 11:33:00,
2013-03-07 05:38:00,23.5,15.8,30.21,East,90,4.7,6.9,72,0.00,CLR,SCT,0.00,0.0,WeatherDisplay:10.37,2013-03-07 11:38:00,
2013-03-07 05:43:00,23.5,15.8,30.18,ESE,112,5.9,7.1,72,0.00,CLR,SCT,0.00,0.0,WeatherDisplay:10.37,2013-03-07 11:43:00,
2013-03-07 05:48:00,23.5,15.8,30.18,ESE,112,4.7,6.9,72,0.00,CLR,SCT,0.00,0.0,WeatherDisplay:10.37,2013-03-07 11:48:00,
2013-03-07 05:53:00,23.5,15.8,30.18,ESE,112,5.6,8.5,72,0.00,CLR,SCT,0.00,0.0,WeatherDisplay:10.37,2013-03-07 11:53:00,
2013-03-07 05:58:00,23.5,15.8,30.18,ESE,112,7.1,9.2,72,0.00,CLR,SCT,0.00,0.0,WeatherDisplay:10.37,2013-03-07 11:58:00,
2013-03-07 06:04:00,23.5,15.5,30.18,ESE,112,4.7,6.4,71,0.00,CLR,SCT,0.00,0.0,WeatherDisplay:10.37,2013-03-07 12:04:00,
2013-03-07 06:09:00,23.5,15.5,30.18,ESE,112,6.2,6.2,71,0.00,CLR,SCT,0.00,0.0,WeatherDisplay:10.37,2013-03-07 12:09:00,
2013-03-07 06:14:00,23.5,15.5,30.18,East,90,4.0,5.8,71,0.00,CLR,SCT,0.00,0.0,WeatherDisplay:10.37,2013-03-07 12:14:00,
2013-03-07 06:19:00,23.4,15.3,30.18,ESE,112,2.9,5.8,71,0.00,OVC,SCT,0.00,0.0,WeatherDisplay:10.37,2013-03-07 12:19:00,
2013-03-07 06:24:00,23.2,15.2,30.18,East,90,4.7,6.9,71,0.00,OVC,SCT,0.00,0.0,WeatherDisplay:10.37,2013-03-07 12:24:00,
2013-03-07 06:29:00,23.2,15.2,30.18,ESE,112,4.0,6.2,71,0.00,OVC,SCT,0.00,0.0,WeatherDisplay:10.37,2013-03-07 12:29:00,
2013-03-07 06:34:00,23.0,15.0,30.18,ESE,112,4.0,6.2,71,0.00,OVC,SCT,0.00,0.0,WeatherDisplay:10.37,2013-03-07 12:34:00,
2013-03-07 06:39:00,23.0,15.0,30.18,ESE,112,5.4,9.2,71,0.00,OVC,SCT,0.00,0.0,WeatherDisplay:10.37,2013-03-07 12:39:00,
2013-03-07 06:44:00,22.8,15.1,30.18,ENE,68,4.0,9.2,72,0.00,OVC,SCT,0.00,0.0,WeatherDisplay:10.37,2013-03-07 12:44:00,
2013-03-07 06:49:00,22.8,15.1,30.18,ESE,112,6.4,7.8,72,0.00,OVC,SCT,0.00,0.0,WeatherDisplay:10.37,2013-03-07 12:49:00,
2013-03-07 06:54:00,22.8,15.5,30.18,ESE,112,5.9,9.2,73,0.00,OVC,SCT,0.00,0.0,WeatherDisplay:10.37,2013-03-07 12:54:00,
2013-03-07 06:59:00,22.8,15.5,30.18,ESE,112,5.9,8.1,73,0.00,OVC,SCT,0.00,0.0,WeatherDisplay:10.37,2013-03-07 12:59:00,
2013-03-07 07:04:00,22.8,15.5,30.18,ESE,112,3.8,6.9,73,0.00,OVC,SCT,0.00,0.0,WeatherDisplay:10.37,2013-03-07 13:04:00,
2013-03-07 07:09:00,22.8,15.5,30.21,ENE,68,4.7,7.6,73,0.00,OVC,SCT,0.00,0.0,WeatherDisplay:10.37,2013-03-07 13:09:00,
2013-03-07 07:15:00,23.0,15.9,30.21,ESE,105,5.0,10.0,74,0.00,OVC,SCT,0.00,0.0,WeatherDisplay:10.37,2013-03-07 13:15:00,
2013-03-07 07:20:00,23.2,15.8,30.21,East,90,4.3,5.8,73,0.00,OVC,SCT,0.00,0.0,WeatherDisplay:10.37,2013-03-07 13:20:00,
2013-03-07 07:25:00,23.4,16.3,30.21,ESE,112,4.7,6.0,74,0.00,OVC,SCT,0.00,0.0,WeatherDisplay:10.37,2013-03-07 13:25:00,
2013-03-07 07:30:00,23.4,16.3,30.21,ESE,112,4.5,8.1,74,0.00,OVC,SCT,0.00,0.0,WeatherDisplay:10.37,2013-03-07 13:30:00,
2013-03-07 07:35:00,23.5,16.2,30.21,ESE,112,5.4,7.1,73,0.00,OVC,SCT,0.00,0.0,WeatherDisplay:10.37,2013-03-07 13:35:00,
2013-03-07 07:40:00,23.7,16.3,30.21,ESE,112,6.9,10.4,73,0.00,OVC,SCT,0.00,0.0,WeatherDisplay:10.37,2013-03-07 13:40:00,
2013-03-07 07:45:00,23.9,16.5,30.21,ESE,112,6.0,7.1,73,0.00,OVC,SCT,0.00,0.0,WeatherDisplay:10.37,2013-03-07 13:45:00,
2013-03-07 07:50:00,24.1,16.4,30.21,ESE,112,4.7,7.1,72,0.00,OVC,SCT,0.00,0.0,WeatherDisplay:10.37,2013-03-07 13:50:00,
2013-03-07 07:56:00,24.3,16.5,30.21,ESE,112,6.7,9.2,72,0.00,OVC,SCT,0.00,0.0,WeatherDisplay:10.37,2013-03-07 13:56:00,
2013-03-07 08:01:00,24.4,16.4,30.21,ESE,112,5.6,6.9,71,0.00,OVC,SCT,0.00,0.0,WeatherDisplay:10.37,2013-03-07 14:01:00,
2013-03-07 08:06:00,24.8,16.7,30.21,ESE,112,4.3,5.8,71,0.00,OVC,SCT,0.00,0.0,WeatherDisplay:10.37,2013-03-07 14:06:00,
2013-03-07 08:11:00,25.2,16.7,30.21,ESE,112,5.4,8.1,70,0.00,OVC,SCT,0.00,0.0,WeatherDisplay:10.37,2013-03-07 14:11:00,
2013-03-07 08:16:00,25.3,16.9,30.21,ESE,112,7.1,8.1,70,0.00,OVC,SCT,0.00,0.0,WeatherDisplay:10.37,2013-03-07 14:16:00,
2013-03-07 08:21:00,25.5,16.8,30.21,ESE,112,4.3,5.8,69,0.00,OVC,SCT,0.00,0.0,WeatherDisplay:10.37,2013-03-07 14:21:00,
2013-03-07 08:26:00,26.1,16.9,30.21,East,90,7.1,8.1,68,0.00,OVC,SCT,0.00,0.0,WeatherDisplay:10.37,2013-03-07 14:26:00,
2013-03-07 08:31:00,26.2,16.8,30.21,East,90,6.2,10.4,67,0.00,OVC,SCT,0.00,0.0,WeatherDisplay:10.37,2013-03-07 14:31:00,
2013-03-07 08:36:00,26.6,17.1,30.21,South,180,5.9,8.7,67,0.00,OVC,SCT,0.00,0.0,WeatherDisplay:10.37,2013-03-07 14:36:00,
2013-03-07 08:41:00,27.1,17.3,30.21,ESE,112,5.6,9.2,66,0.00,OVC,SCT,0.00,0.0,WeatherDisplay:10.37,2013-03-07 14:41:00,
2013-03-07 08:46:00,27.5,16.9,30.21,SSE,158,6.2,10.4,64,0.00,OVC,SCT,0.00,0.0,WeatherDisplay:10.37,2013-03-07 14:46:00,
2013-03-07 08:51:00,27.9,16.9,30.21,ESE,112,5.4,8.7,63,0.00,OVC,SCT,0.00,0.0,WeatherDisplay:10.37,2013-03-07 14:51:00,
2013-03-07 08:56:00,28.2,16.9,30.21,ESE,112,6.4,8.1,62,0.00,OVC,SCT,0.00,0.0,WeatherDisplay:10.37,2013-03-07 14:56:00,
2013-03-07 09:02:00,28.4,16.3,30.21,ESE,112,8.1,10.4,60,0.00,OVC,SCT,0.00,0.0,WeatherDisplay:10.37,2013-03-07 15:02:00,
2013-03-07 09:07:00,28.6,16.1,30.21,ESE,112,5.6,9.0,59,0.00,OVC,SCT,0.00,0.0,WeatherDisplay:10.37,2013-03-07 15:07:00,
2013-03-07 09:12:00,29.3,16.7,30.21,ESE,112,6.0,9.4,59,0.00,OVC,SCT,0.00,0.0,WeatherDisplay:10.37,2013-03-07 15:12:00,
2013-03-07 09:17:00,29.8,16.8,30.21,ESE,112,9.0,12.7,58,0.00,OVC,SCT,0.00,0.0,WeatherDisplay:10.37,2013-03-07 15:17:00,
2013-03-07 09:22:00,29.5,15.3,30.21,SSE,158,8.7,10.4,55,0.00,OVC,SCT,0.00,0.0,WeatherDisplay:10.37,2013-03-07 15:22:00,
2013-03-07 09:27:00,29.5,15.3,30.21,ESE,112,6.9,11.5,55,0.00,OVC,SCT,0.00,0.0,WeatherDisplay:10.37,2013-03-07 15:27:00,
2013-03-07 09:32:00,29.8,16.0,30.21,ESE,112,6.2,9.7,56,0.00,OVC,SCT,0.00,0.0,WeatherDisplay:10.37,2013-03-07 15:32:00,
2013-03-07 09:37:00,30.2,16.4,30.21,East,90,6.2,9.2,56,0.00,OVC,SCT,0.00,0.0,WeatherDisplay:10.37,2013-03-07 15:37:00,
2013-03-07 09:42:00,30.7,16.9,30.21,ESE,112,5.6,8.1,56,0.00,OVC,SCT,0.00,0.0,WeatherDisplay:10.37,2013-03-07 15:42:00,
2013-03-07 09:47:00,31.1,16.8,30.21,ESE,112,7.6,9.2,55,0.00,OVC,SCT,0.00,0.0,WeatherDisplay:10.37,2013-03-07 15:47:00,
2013-03-07 09:52:00,31.5,16.7,30.21,ESE,112,7.8,9.2,54,0.00,OVC,SCT,0.00,0.0,WeatherDisplay:10.37,2013-03-07 15:52:00,
2013-03-07 09:57:00,31.8,17.0,30.21,SSE,158,7.1,12.7,54,0.00,OVC,SCT,0.00,100.0,WeatherDisplay:10.37,2013-03-07 15:57:00,
2013-03-07 10:03:00,32.4,17.1,30.21,SE,135,7.1,10.4,53,0.00,OVC,SCT,0.00,100.0,WeatherDisplay:10.37,2013-03-07 16:03:00,
2013-03-07 10:08:00,32.7,17.5,30.21,SSW,202,4.3,8.1,53,0.00,OVC,SCT,0.00,100.0,WeatherDisplay:10.37,2013-03-07 16:08:00,
2013-03-07 10:13:00,33.3,17.5,30.21,ESE,112,5.6,9.2,52,0.00,OVC,SCT,0.00,100.0,WeatherDisplay:10.37,2013-03-07 16:13:00,
2013-03-07 10:18:00,33.3,17.1,30.21,ENE,68,7.6,12.7,51,0.00,OVC,SCT,0.00,100.0,WeatherDisplay:10.37,2013-03-07 16:18:00,
2013-03-07 10:23:00,33.6,17.4,30.21,ESE,112,6.9,10.2,51,0.00,OVC,SCT,0.00,100.0,WeatherDisplay:10.37,2013-03-07 16:23:00,
2013-03-07 10:28:00,34.0,17.7,30.18,SSE,158,6.9,10.4,51,0.00,OVC,SCT,0.00,100.0,WeatherDisplay:10.37,2013-03-07 16:28:00,
2013-03-07 10:34:00,34.5,18.2,30.18,SSE,158,6.9,6.9,51,0.00,OVC,SCT,0.00,100.0,WeatherDisplay:10.37,2013-03-07 16:34:00,
2013-03-07 10:39:00,34.9,18.1,30.18,SSW,202,7.8,11.5,50,0.00,OVC,SCT,0.00,100.0,WeatherDisplay:10.37,2013-03-07 16:39:00,
2013-03-07 10:44:00,35.1,17.3,30.18,SE,135,7.6,8.1,48,0.00,OVC,SCT,0.00,100.0,WeatherDisplay:10.37,2013-03-07 16:44:00,
2013-03-07 10:49:00,35.1,17.3,30.18,ESE,112,8.5,10.4,48,0.00,OVC,SCT,0.00,100.0,WeatherDisplay:10.37,2013-03-07 16:49:00,
2013-03-07 10:54:00,34.9,16.7,30.18,SSE,158,7.8,9.2,47,0.00,OVC,SCT,0.00,100.0,WeatherDisplay:10.37,2013-03-07 16:54:00,
2013-03-07 10:59:00,35.1,17.8,30.18,ESE,112,7.8,12.7,49,0.00,OVC,SCT,0.00,100.0,WeatherDisplay:10.37,2013-03-07 16:59:00,
2013-03-07 11:05:00,35.4,18.1,30.18,ESE,112,9.4,12.7,49,0.00,OVC,SCT,0.00,100.0,WeatherDisplay:10.37,2013-03-07 17:05:00,
2013-03-07 11:10:00,36.1,19.3,30.18,ENE,68,6.2,9.2,50,0.00,OVC,SCT,0.00,200.0,WeatherDisplay:10.37,2013-03-07 17:10:00,
2013-03-07 11:15:00,37.0,19.6,30.18,ESE,112,9.8,12.7,49,0.00,OVC,SCT,0.00,200.0,WeatherDisplay:10.37,2013-03-07 17:15:00,
2013-03-07 11:20:00,37.4,19.0,30.18,ESE,112,8.1,10.4,47,0.00,OVC,SCT,0.00,200.0,WeatherDisplay:10.37,2013-03-07 17:20:00,
2013-03-07 11:25:00,37.8,18.8,30.18,SSE,158,8.5,14.7,46,0.00,OVC,SCT,0.00,200.0,WeatherDisplay:10.37,2013-03-07 17:25:00,
2013-03-07 11:30:00,38.1,19.1,30.18,SE,135,9.4,13.8,46,0.00,OVC,SCT,0.00,100.0,WeatherDisplay:10.37,2013-03-07 17:30:00,
2013-03-07 11:35:00,38.7,19.6,30.18,ESE,112,7.8,9.2,46,0.00,OVC,SCT,0.00,100.0,WeatherDisplay:10.37,2013-03-07 17:35:00,
2013-03-07 11:40:00,38.8,19.3,30.18,ESE,112,7.4,8.1,45,0.00,OVC,SCT,0.00,100.0,WeatherDisplay:10.37,2013-03-07 17:40:00,
2013-03-07 11:46:00,39.0,18.4,30.18,ESE,112,10.5,16.1,43,0.00,OVC,SCT,0.00,100.0,WeatherDisplay:10.37,2013-03-07 17:46:00,
2013-03-07 11:51:00,39.6,19.4,30.18,East,90,7.4,8.1,44,0.00,OVC,SCT,0.00,200.0,WeatherDisplay:10.37,2013-03-07 17:51:00,
2013-03-07 11:56:00,39.9,19.2,30.18,South,180,9.4,12.7,43,0.00,OVC,SCT,0.00,200.0,WeatherDisplay:10.37,2013-03-07 17:56:00,
2013-03-07 12:01:00,39.9,19.2,30.18,ENE,68,6.7,10.4,43,0.00,OVC,SCT,0.00,200.0,WeatherDisplay:10.37,2013-03-07 18:01:00,
2013-03-07 12:06:00,40.5,19.7,30.18,SSE,158,7.1,12.3,43,0.00,OVC,SCT,0.00,100.0,WeatherDisplay:10.37,2013-03-07 18:06:00,
2013-03-07 12:11:00,40.6,19.9,30.15,ESE,112,6.7,10.4,43,0.00,OVC,SCT,0.00,100.0,WeatherDisplay:10.37,2013-03-07 18:11:00,
2013-03-07 12:16:00,41.2,19.8,30.15,SSE,158,8.1,10.4,42,0.00,OVC,SCT,0.00,100.0,WeatherDisplay:10.37,2013-03-07 18:16:00,
2013-03-07 12:21:00,41.4,20.0,30.15,ESE,112,8.5,15.0,42,0.00,OVC,SCT,0.00,100.0,WeatherDisplay:10.37,2013-03-07 18:21:00,
2013-03-07 12:26:00,41.7,20.3,30.12,ESE,112,6.0,6.9,42,0.00,OVC,SCT,0.00,100.0,WeatherDisplay:10.37,2013-03-07 18:26:00,
2013-03-07 12:31:00,42.1,20.0,30.12,East,90,8.1,11.5,41,0.00,OVC,SCT,0.00,200.0,WeatherDisplay:10.37,2013-03-07 18:31:00,
2013-03-07 12:36:00,42.3,20.2,30.12,ESE,112,10.7,13.8,41,0.00,OVC,SCT,0.00,200.0,WeatherDisplay:10.37,2013-03-07 18:36:00,
2013-03-07 12:41:00,43.0,20.9,30.12,ESE,112,6.2,9.2,41,0.00,OVC,SCT,0.00,200.0,WeatherDisplay:10.37,2013-03-07 18:41:00,
2013-03-07 12:46:00,43.5,20.8,30.12,ESE,112,8.1,12.7,40,0.00,OVC,SCT,0.00,200.0,WeatherDisplay:10.37,2013-03-07 18:46:00,
2013-03-07 12:51:00,43.5,20.8,30.12,SSE,158,8.5,10.4,40,0.00,OVC,SCT,0.00,200.0,WeatherDisplay:10.37,2013-03-07 18:51:00,
2013-03-07 12:56:00,44.2,21.4,30.12,ESE,112,6.9,11.5,40,0.00,OVC,SCT,0.00,200.0,WeatherDisplay:10.37,2013-03-07 18:56:00,
2013-03-07 13:02:00,44.8,21.3,30.12,ESE,112,8.5,12.7,39,0.00,OVC,SCT,0.00,200.0,WeatherDisplay:10.37,2013-03-07 19:02:00,
2013-03-07 13:07:00,44.8,20.7,30.12,ESE,112,10.0,12.7,38,0.00,OVC,SCT,0.00,200.0,WeatherDisplay:10.37,2013-03-07 19:07:00,
2013-03-07 13:12:00,45.0,20.8,30.12,ESE,112,7.6,11.5,38,0.00,OVC,SCT,0.00,200.0,WeatherDisplay:10.37,2013-03-07 19:12:00,
2013-03-07 13:17:00,45.5,21.3,30.12,ESE,112,8.1,12.7,38,0.00,OVC,SCT,0.00,200.0,WeatherDisplay:10.37,2013-03-07 19:17:00,
2013-03-07 13:22:00,45.9,21.7,30.12,ENE,68,7.6,10.5,38,0.00,OVC,SCT,0.00,100.0,WeatherDisplay:10.37,2013-03-07 19:22:00,
2013-03-07 13:28:00,46.0,21.8,30.12,ESE,112,9.4,12.7,38,0.00,OVC,SCT,0.00,200.0,WeatherDisplay:10.37,2013-03-07 19:28:00,
2013-03-07 13:33:00,46.4,21.5,30.12,SSE,158,9.0,11.5,37,0.00,OVC,SCT,0.00,200.0,WeatherDisplay:10.37,2013-03-07 19:33:00,
2013-03-07 13:38:00,46.9,22.0,30.12,ESE,112,7.6,10.4,37,0.00,OVC,SCT,0.00,200.0,WeatherDisplay:10.37,2013-03-07 19:38:00,
2013-03-07 13:43:00,47.5,22.5,30.09,ESE,112,7.1,10.4,37,0.00,OVC,SCT,0.00,200.0,WeatherDisplay:10.37,2013-03-07 19:43:00,
2013-03-07 13:48:00,47.7,22.6,30.09,ESE,112,8.1,11.5,37,0.00,OVC,SCT,0.00,100.0,WeatherDisplay:10.37,2013-03-07 19:48:00,
2013-03-07 13:53:00,47.7,22.6,30.09,ESE,112,7.1,8.5,37,0.00,OVC,SCT,0.00,200.0,WeatherDisplay:10.37,2013-03-07 19:53:00,
2013-03-07 13:58:00,47.8,22.8,30.09,ESE,112,6.9,10.4,37,0.00,OVC,SCT,0.00,200.0,WeatherDisplay:10.37,2013-03-07 19:58:00,
2013-03-07 14:03:00,48.0,23.0,30.09,ESE,112,9.4,12.7,37,0.00,OVC,SCT,0.00,100.0,WeatherDisplay:10.37,2013-03-07 20:03:00,
2013-03-07 14:08:00,48.0,23.0,30.09,ESE,112,6.0,12.7,37,0.00,OVC,SCT,0.00,100.0,WeatherDisplay:10.37,2013-03-07 20:08:00,
2013-03-07 14:13:00,48.2,22.5,30.09,South,180,6.9,9.2,36,0.00,OVC,SCT,0.00,100.0,WeatherDisplay:10.37,2013-03-07 20:13:00,
2013-03-07 14:18:00,48.6,22.8,30.09,ESE,112,7.8,9.2,36,0.00,OVC,SCT,0.00,100.0,WeatherDisplay:10.37,2013-03-07 20:18:00,
2013-03-07 14:23:00,48.6,22.1,30.09,SSE,158,9.2,12.3,35,0.00,OVC,SCT,0.00,100.0,WeatherDisplay:10.37,2013-03-07 20:23:00,
2013-03-07 14:28:00,48.6,22.1,30.09,East,90,8.1,11.5,35,0.00,OVC,SCT,0.00,100.0,WeatherDisplay:10.37,2013-03-07 20:28:00,
2013-03-07 14:34:00,48.7,22.3,30.09,ESE,112,8.1,12.8,35,0.00,OVC,SCT,0.00,100.0,WeatherDisplay:10.37,2013-03-07 20:34:00,
2013-03-07 14:39:00,48.7,22.3,30.09,SSE,158,7.6,10.4,35,0.00,OVC,SCT,0.00,100.0,WeatherDisplay:10.37,2013-03-07 20:39:00,
2013-03-07 14:44:00,49.1,22.6,30.09,East,90,6.4,10.4,35,0.00,OVC,SCT,0.00,100.0,WeatherDisplay:10.37,2013-03-07 20:44:00,
2013-03-07 14:49:00,49.1,22.6,30.09,East,90,6.9,10.4,35,0.00,OVC,SCT,0.00,100.0,WeatherDisplay:10.37,2013-03-07 20:49:00,
2013-03-07 14:54:00,49.6,22.4,30.09,East,90,6.7,10.4,34,0.00,OVC,SCT,0.00,100.0,WeatherDisplay:10.37,2013-03-07 20:54:00,
2013-03-07 14:59:00,50.0,22.0,30.09,SE,135,9.2,12.7,33,0.00,OVC,SCT,0.00,100.0,WeatherDisplay:10.37,2013-03-07 20:59:00,
2013-03-07 15:04:00,50.0,22.7,30.09,ESE,112,7.4,9.7,34,0.00,OVC,SCT,0.00,100.0,WeatherDisplay:10.37,2013-03-07 21:04:00,
2013-03-07 15:09:00,50.0,22.0,30.09,ESE,112,7.8,11.5,33,0.00,OVC,SCT,0.00,100.0,WeatherDisplay:10.37,2013-03-07 21:09:00,
2013-03-07 15:14:00,50.2,22.1,30.09,East,90,6.2,10.4,33,0.00,OVC,SCT,0.00,0.0,WeatherDisplay:10.37,2013-03-07 21:14:00,
2013-03-07 15:19:00,50.4,22.3,30.09,ESE,112,6.4,9.4,33,0.00,OVC,SCT,0.00,0.0,WeatherDisplay:10.37,2013-03-07 21:19:00,
2013-03-07 15:24:00,50.5,21.7,30.06,ESE,112,6.9,9.8,32,0.00,OVC,SCT,0.00,0.0,WeatherDisplay:10.37,2013-03-07 21:24:00,
2013-03-07 15:30:00,50.5,21.7,30.06,ESE,112,7.1,12.3,32,0.00,OVC,SCT,0.00,0.0,WeatherDisplay:10.37,2013-03-07 21:30:00,
2013-03-07 15:35:00,50.5,21.7,30.06,ESE,112,7.1,11.5,32,0.00,OVC,SCT,0.00,0.0,WeatherDisplay:10.37,2013-03-07 21:35:00,
2013-03-07 15:40:00,50.7,21.9,30.06,East,90,7.4,12.7,32,0.00,OVC,SCT,0.00,0.0,WeatherDisplay:10.37,2013-03-07 21:40:00,
2013-03-07 15:45:00,50.9,22.1,30.06,East,90,7.4,10.4,32,0.00,OVC,SCT,0.00,0.0,WeatherDisplay:10.37,2013-03-07 21:45:00,
2013-03-07 15:50:00,50.9,22.1,30.06,East,90,6.2,9.2,32,0.00,OVC,SCT,0.00,0.0,WeatherDisplay:10.37,2013-03-07 21:50:00,
2013-03-07 15:55:00,51.1,22.2,30.03,ESE,112,8.1,13.2,32,0.00,OVC,SCT,0.00,0.0,WeatherDisplay:10.37,2013-03-07 21:55:00,
2013-03-07 16:00:00,50.7,21.1,30.03,ESE,112,7.4,10.4,31,0.00,OVC,SCT,0.00,0.0,WeatherDisplay:10.37,2013-03-07 22:00:00,
2013-03-07 16:05:00,50.7,21.1,30.03,ESE,112,7.8,10.4,31,0.00,OVC,SCT,0.00,0.0,WeatherDisplay:10.37,2013-03-07 22:05:00,
2013-03-07 16:10:00,50.7,21.1,30.06,ESE,112,6.7,12.7,31,0.00,OVC,SCT,0.00,0.0,WeatherDisplay:10.37,2013-03-07 22:10:00,
2013-03-07 16:15:00,50.7,21.1,30.06,SSE,158,6.4,9.2,31,0.00,OVC,SCT,0.00,0.0,WeatherDisplay:10.37,2013-03-07 22:15:00,
2013-03-07 16:20:00,50.9,21.3,30.06,SSE,158,6.2,9.4,31,0.00,OVC,SCT,0.00,0.0,WeatherDisplay:10.37,2013-03-07 22:20:00,
2013-03-07 16:26:00,50.5,21.0,30.06,SSE,158,6.4,8.1,31,0.00,OVC,SCT,0.00,0.0,WeatherDisplay:10.37,2013-03-07 22:26:00,
2013-03-07 16:31:00,50.2,20.7,30.06,ESE,112,7.8,15.0,31,0.00,OVC,SCT,0.00,0.0,WeatherDisplay:10.37,2013-03-07 22:31:00,
2013-03-07 16:36:00,50.2,20.7,30.06,SSE,158,4.0,5.8,31,0.00,OVC,SCT,0.00,0.0,WeatherDisplay:10.37,2013-03-07 22:36:00,
2013-03-07 16:41:00,50.2,20.7,30.06,SSE,158,8.1,9.2,31,0.00,OVC,SCT,0.00,0.0,WeatherDisplay:10.37,2013-03-07 22:41:00,
2013-03-07 16:46:00,50.0,21.3,30.06,ESE,112,5.4,9.2,32,0.00,OVC,SCT,0.00,0.0,WeatherDisplay:10.37,2013-03-07 22:46:00,
2013-03-07 16:51:00,49.8,21.1,30.06,ESE,112,6.0,7.1,32,0.00,OVC,SCT,0.00,0.0,WeatherDisplay:10.37,2013-03-07 22:51:00,
2013-03-07 16:56:00,49.8,21.1,30.06,ENE,68,7.6,11.5,32,0.00,OVC,SCT,0.00,0.0,WeatherDisplay:10.37,2013-03-07 22:56:00,
2013-03-07 17:02:00,49.6,21.7,30.06,ESE,112,5.6,8.1,33,0.00,OVC,SCT,0.00,0.0,WeatherDisplay:10.37,2013-03-07 23:02:00,
2013-03-07 17:07:00,49.5,21.5,30.06,South,180,4.5,8.1,33,0.00,OVC,SCT,0.00,0.0,WeatherDisplay:10.37,2013-03-07 23:07:00,
2013-03-07 17:12:00,49.3,21.4,30.06,ESE,112,6.0,6.9,33,0.00,OVC,SCT,0.00,0.0,WeatherDisplay:10.37,2013-03-07 23:12:00,
2013-03-07 17:17:00,49.1,21.2,30.06,SE,135,6.4,9.2,33,0.00,OVC,SCT,0.00,0.0,WeatherDisplay:10.37,2013-03-07 23:17:00,
2013-03-07 17:22:00,48.9,21.7,30.06,SSE,158,4.9,7.4,34,0.00,OVC,SCT,0.00,0.0,WeatherDisplay:10.37,2013-03-07 23:22:00,
2013-03-07 17:27:00,48.7,21.6,30.06,ESE,112,4.0,6.4,34,0.00,OVC,SCT,0.00,0.0,WeatherDisplay:10.37,2013-03-07 23:27:00,
2013-03-07 17:32:00,48.6,21.4,30.06,SSE,158,6.2,7.6,34,0.00,OVC,SCT,0.00,0.0,WeatherDisplay:10.37,2013-03-07 23:32:00,
2013-03-07 17:37:00,48.2,21.1,30.06,ESE,112,8.1,11.5,34,0.00,OVC,SCT,0.00,0.0,WeatherDisplay:10.37,2013-03-07 23:37:00,
2013-03-07 17:42:00,47.5,21.2,30.06,ESE,112,6.7,10.0,35,0.00,OVC,SCT,0.00,0.0,WeatherDisplay:10.37,2013-03-07 23:42:00,
2013-03-07 17:48:00,47.1,20.8,30.06,ESE,112,5.4,7.6,35,0.00,OVC,SCT,0.00,0.0,WeatherDisplay:10.37,2013-03-07 23:48:00,
2013-03-07 17:53:00,46.6,21.0,30.06,East,90,5.4,6.9,36,0.00,OVC,SCT,0.00,0.0,WeatherDisplay:10.37,2013-03-07 23:53:00,
2013-03-07 17:58:00,46.2,21.3,30.03,ESE,112,5.4,8.1,37,0.00,OVC,SCT,0.00,0.0,WeatherDisplay:10.37,2013-03-07 23:58:00,
2013-03-07 18:03:00,45.9,21.0,30.03,ESE,112,4.5,6.9,37,0.00,OVC,SCT,0.00,0.0,WeatherDisplay:10.37,2013-03-08 00:03:00,
2013-03-07 18:08:00,45.5,21.3,30.03,SSE,158,4.5,6.9,38,0.00,OVC,SCT,0.00,0.0,WeatherDisplay:10.37,2013-03-08 00:08:00,
2013-03-07 18:13:00,45.1,21.0,30.06,North,0,4.7,6.4,38,0.00,OVC,SCT,0.00,0.0,WeatherDisplay:10.37,2013-03-08 00:13:00,
2013-03-07 18:18:00,44.8,20.7,30.06,ESE,112,6.0,8.1,38,0.00,OVC,SCT,0.00,0.0,WeatherDisplay:10.37,2013-03-08 00:18:00,
2013-03-07 18:23:00,44.6,20.5,30.06,East,90,8.1,12.7,38,0.00,OVC,SCT,0.00,0.0,WeatherDisplay:10.37,2013-03-08 00:23:00,
2013-03-07 18:28:00,44.2,20.8,30.06,East,90,4.5,6.4,39,0.00,OVC,SCT,0.00,0.0,WeatherDisplay:10.37,2013-03-08 00:28:00,
2013-03-07 18:33:00,44.1,20.7,30.06,ESE,112,4.0,6.9,39,0.00,OVC,SCT,0.00,0.0,WeatherDisplay:10.37,2013-03-08 00:33:00,
2013-03-07 18:38:00,43.7,20.3,30.06,ESE,112,5.6,8.1,39,0.00,OVC,SCT,0.00,0.0,WeatherDisplay:10.37,2013-03-08 00:38:00,
2013-03-07 18:43:00,43.3,20.6,30.06,ESE,112,6.0,8.1,40,0.00,OVC,SCT,0.00,0.0,WeatherDisplay:10.37,2013-03-08 00:43:00,
2013-03-07 18:48:00,43.0,20.3,30.06,ESE,112,5.4,8.5,40,0.00,OVC,SCT,0.00,0.0,WeatherDisplay:10.37,2013-03-08 00:48:00,
2013-03-07 18:53:00,42.6,20.5,30.06,ESE,112,5.6,9.7,41,0.00,CLR,SCT,0.00,0.0,WeatherDisplay:10.37,2013-03-08 00:53:00,
2013-03-07 18:58:00,42.3,20.2,30.09,ENE,68,6.0,6.9,41,0.00,CLR,SCT,0.00,0.0,WeatherDisplay:10.37,2013-03-08 00:58:00,
2013-03-07 19:03:00,42.1,20.6,30.09,ESE,112,4.7,6.0,42,0.00,CLR,SCT,0.00,0.0,WeatherDisplay:10.37,2013-03-08 01:03:00,
2013-03-07 19:08:00,41.7,20.3,30.09,ENE,68,4.7,10.4,42,0.00,CLR,SCT,0.00,0.0,WeatherDisplay:10.37,2013-03-08 01:08:00,
2013-03-07 19:14:00,41.5,20.1,30.09,ESE,112,4.9,10.4,42,0.00,CLR,SCT,0.00,0.0,WeatherDisplay:10.37,2013-03-08 01:14:00,
2013-03-07 19:19:00,41.2,19.8,30.09,ESE,112,5.4,9.2,42,0.00,CLR,SCT,0.00,0.0,WeatherDisplay:10.37,2013-03-08 01:19:00,
2013-03-07 19:24:00,41.0,20.2,30.09,ENE,68,6.0,10.4,43,0.00,CLR,SCT,0.00,0.0,WeatherDisplay:10.37,2013-03-08 01:24:00,
2013-03-07 19:29:00,40.6,19.9,30.09,SSE,158,5.4,6.0,43,0.00,CLR,SCT,0.00,0.0,WeatherDisplay:10.37,2013-03-08 01:29:00,
2013-03-07 19:34:00,40.5,20.2,30.09,ESE,112,6.4,9.2,44,0.00,CLR,SCT,0.00,0.0,WeatherDisplay:10.37,2013-03-08 01:34:00,
2013-03-07 19:39:00,40.1,19.9,30.09,ESE,112,4.7,8.1,44,0.00,CLR,SCT,0.00,0.0,WeatherDisplay:10.37,2013-03-08 01:39:00,
2013-03-07 19:44:00,39.9,19.7,30.09,ESE,112,5.9,9.2,44,0.00,CLR,SCT,0.00,0.0,WeatherDisplay:10.37,2013-03-08 01:44:00,
2013-03-07 19:49:00,39.6,19.9,30.09,ESE,112,5.9,8.5,45,0.00,CLR,SCT,0.00,0.0,WeatherDisplay:10.37,2013-03-08 01:49:00,
2013-03-07 19:54:00,39.4,19.8,30.09,East,90,6.4,9.2,45,0.00,CLR,SCT,0.00,0.0,WeatherDisplay:10.37,2013-03-08 01:54:00,
2013-03-07 19:59:00,39.2,19.6,30.09,ESE,112,5.4,9.2,45,0.00,CLR,SCT,0.00,0.0,WeatherDisplay:10.37,2013-03-08 01:59:00,
2013-03-07 20:04:00,38.8,19.8,30.09,ESE,112,5.6,6.9,46,0.00,CLR,SCT,0.00,0.0,WeatherDisplay:10.37,2013-03-08 02:04:00,
2013-03-07 20:09:00,38.7,19.6,30.12,ESE,112,6.9,10.4,46,0.00,CLR,SCT,0.00,0.0,WeatherDisplay:10.37,2013-03-08 02:09:00,
2013-03-07 20:14:00,38.5,19.5,30.12,ESE,112,5.4,7.4,46,0.00,CLR,SCT,0.00,0.0,WeatherDisplay:10.37,2013-03-08 02:14:00,
2013-03-07 20:19:00,38.3,19.8,30.12,ESE,112,5.4,9.8,47,0.00,CLR,SCT,0.00,0.0,WeatherDisplay:10.37,2013-03-08 02:19:00,
2013-03-07 20:24:00,37.9,19.5,30.12,ESE,112,6.4,8.5,47,0.00,CLR,SCT,0.00,0.0,WeatherDisplay:10.37,2013-03-08 02:24:00,
2013-03-07 20:30:00,37.8,19.8,30.12,ESE,112,5.9,9.2,48,0.00,CLR,SCT,0.00,0.0,WeatherDisplay:10.37,2013-03-08 02:30:00,
2013-03-07 20:35:00,37.6,19.6,30.12,ESE,112,7.4,11.5,48,0.00,CLR,SCT,0.00,0.0,WeatherDisplay:10.37,2013-03-08 02:35:00,
2013-03-07 20:40:00,37.4,20.0,30.12,ESE,112,5.4,8.1,49,0.00,CLR,SCT,0.00,0.0,WeatherDisplay:10.37,2013-03-08 02:40:00,
2013-03-07 20:45:00,37.2,19.8,30.12,ESE,112,6.2,6.9,49,0.00,CLR,SCT,0.00,0.0,WeatherDisplay:10.37,2013-03-08 02:45:00,
2013-03-07 20:50:00,37.0,20.1,30.12,ESE,112,4.9,7.8,50,0.00,CLR,SCT,0.00,0.0,WeatherDisplay:10.37,2013-03-08 02:50:00,
2013-03-07 20:55:00,36.9,19.9,30.12,ESE,112,5.6,8.1,50,0.00,CLR,SCT,0.00,0.0,WeatherDisplay:10.37,2013-03-08 02:55:00,
2013-03-07 21:00:00,36.7,19.8,30.12,ESE,112,6.7,9.2,50,0.00,CLR,SCT,0.00,0.0,WeatherDisplay:10.37,2013-03-08 03:00:00,
2013-03-07 21:05:00,36.5,19.6,30.12,ESE,112,6.0,10.4,50,0.00,CLR,SCT,0.00,0.0,WeatherDisplay:10.37,2013-03-08 03:05:00,
2013-03-07 21:10:00,36.3,19.9,30.12,ESE,112,6.9,8.1,51,0.00,CLR,SCT,0.00,0.0,WeatherDisplay:10.37,2013-03-08 03:10:00,
2013-03-07 21:15:00,36.1,19.7,30.12,ENE,68,5.6,8.1,51,0.00,CLR,SCT,0.00,0.0,WeatherDisplay:10.37,2013-03-08 03:15:00,
2013-03-07 21:20:00,36.0,19.6,30.12,ESE,112,5.4,5.8,51,0.00,CLR,SCT,0.00,0.0,WeatherDisplay:10.37,2013-03-08 03:20:00,
2013-03-07 21:26:00,35.6,19.2,30.12,ESE,112,4.5,6.0,51,0.00,CLR,SCT,0.00,0.0,WeatherDisplay:10.37,2013-03-08 03:26:00,
2013-03-07 21:31:00,35.6,19.7,30.12,ESE,112,5.9,8.1,52,0.00,CLR,SCT,0.00,0.0,WeatherDisplay:10.37,2013-03-08 03:31:00,
2013-03-07 21:36:00,35.4,20.0,30.12,SSE,158,5.9,6.9,53,0.00,CLR,SCT,0.00,0.0,WeatherDisplay:10.37,2013-03-08 03:36:00,
2013-03-07 21:41:00,35.2,19.8,30.12,ENE,68,5.9,9.2,53,0.00,CLR,SCT,0.00,0.0,WeatherDisplay:10.37,2013-03-08 03:41:00,
2013-03-07 21:46:00,35.1,19.6,30.12,NE,45,5.4,5.8,53,0.00,CLR,SCT,0.00,0.0,WeatherDisplay:10.37,2013-03-08 03:46:00,
2013-03-07 21:51:00,34.9,19.5,30.12,ESE,112,4.7,5.8,53,0.00,CLR,SCT,0.00,0.0,WeatherDisplay:10.37,2013-03-08 03:51:00,
2013-03-07 21:56:00,34.7,19.7,30.12,ESE,112,4.5,6.4,54,0.00,CLR,SCT,0.00,0.0,WeatherDisplay:10.37,2013-03-08 03:56:00,
2013-03-07 22:01:00,34.5,19.6,30.12,ESE,112,3.8,5.8,54,0.00,CLR,SCT,0.00,0.0,WeatherDisplay:10.37,2013-03-08 04:01:00,
2013-03-07 22:07:00,34.3,19.8,30.12,ENE,68,6.0,8.1,55,0.00,CLR,SCT,0.00,0.0,WeatherDisplay:10.37,2013-03-08 04:07:00,
2013-03-07 22:12:00,34.3,19.8,30.12,ESE,112,5.9,8.1,55,0.00,CLR,SCT,0.00,0.0,WeatherDisplay:10.37,2013-03-08 04:12:00,
2013-03-07 22:17:00,34.2,20.1,30.12,SSE,158,4.7,6.9,56,0.00,CLR,SCT,0.00,0.0,WeatherDisplay:10.37,2013-03-08 04:17:00,
2013-03-07 22:22:00,34.2,20.1,30.12,East,90,3.8,8.1,56,0.00,CLR,SCT,0.00,0.0,WeatherDisplay:10.37,2013-03-08 04:22:00,
2013-03-07 22:27:00,34.0,20.3,30.12,ESE,112,4.9,8.1,57,0.00,CLR,SCT,0.00,0.0,WeatherDisplay:10.37,2013-03-08 04:27:00,
2013-03-07 22:32:00,34.0,19.9,30.12,East,90,7.1,10.4,56,0.00,CLR,SCT,0.00,0.0,WeatherDisplay:10.37,2013-03-08 04:32:00,
2013-03-07 22:37:00,34.0,20.3,30.12,East,90,7.4,10.4,57,0.00,CLR,SCT,0.00,0.0,WeatherDisplay:10.37,2013-03-08 04:37:00,
2013-03-07 22:42:00,33.8,20.2,30.12,ESE,112,7.1,9.8,57,0.00,CLR,SCT,0.00,0.0,WeatherDisplay:10.37,2013-03-08 04:42:00,
2013-03-07 22:47:00,33.8,20.2,30.12,SE,135,4.0,8.1,57,0.00,CLR,SCT,0.00,0.0,WeatherDisplay:10.37,2013-03-08 04:47:00,
2013-03-07 22:52:00,33.8,20.2,30.12,ESE,112,5.6,8.1,57,0.00,CLR,SCT,0.00,0.0,WeatherDisplay:10.37,2013-03-08 04:52:00,
2013-03-07 22:57:00,33.6,20.4,30.12,ESE,112,6.7,7.1,58,0.00,CLR,SCT,0.00,0.0,WeatherDisplay:10.37,2013-03-08 04:57:00,
2013-03-07 23:00:00,33.6,20.4,30.12,East,90,4.9,9.2,58,0.00,CLR,SCT,0.00,0.0,WeatherDisplay:10.37,2013-03-08 05:00:00,
2013-03-07 23:01:00,33.6,20.4,30.12,ESE,112,4.9,9.2,58,0.00,CLR,SCT,0.00,0.0,WeatherDisplay:10.37,2013-03-08 05:01:00,
2013-03-07 23:02:00,33.6,20.4,30.12,East,90,5.9,9.2,58,0.00,CLR,SCT,0.00,0.0,WeatherDisplay:10.37,2013-03-08 05:02:00,
2013-03-07 23:07:00,33.4,20.2,30.12,ESE,112,5.4,6.9,58,0.00,CLR,SCT,0.00,0.0,WeatherDisplay:10.37,2013-03-08 05:07:00,
2013-03-07 23:12:00,33.3,20.1,30.12,ESE,112,4.7,6.0,58,0.00,CLR,SCT,0.00,0.0,WeatherDisplay:10.37,2013-03-08 05:12:00,
2013-03-07 23:17:00,33.3,20.1,30.12,ENE,68,5.6,6.9,58,0.00,CLR,SCT,0.00,0.0,WeatherDisplay:10.37,2013-03-08 05:17:00,
2013-03-07 23:22:00,33.3,20.1,30.12,ESE,112,5.9,8.1,58,0.00,CLR,SCT,0.00,0.0,WeatherDisplay:10.37,2013-03-08 05:22:00,
2013-03-07 23:27:00,33.1,20.3,30.12,NNE,22,4.9,8.1,59,0.00,CLR,SCT,0.00,0.0,WeatherDisplay:10.37,2013-03-08 05:27:00,
2013-03-07 23:32:00,33.1,20.3,30.12,ESE,112,5.4,6.9,59,0.00,CLR,SCT,0.00,0.0,WeatherDisplay:10.37,2013-03-08 05:32:00,
2013-03-07 23:37:00,33.1,20.3,30.12,ESE,112,5.6,8.1,59,0.00,CLR,SCT,0.00,0.0,WeatherDisplay:10.37,2013-03-08 05:37:00,
2013-03-07 23:43:00,32.9,20.1,30.12,East,90,4.5,8.1,59,0.00,CLR,SCT,0.00,0.0,WeatherDisplay:10.37,2013-03-08 05:43:00,
2013-03-07 23:48:00,32.9,20.1,30.12,ESE,112,7.4,10.4,59,0.00,CLR,SCT,0.00,0.0,WeatherDisplay:10.37,2013-03-08 05:48:00,
2013-03-07 23:53:00,32.7,20.4,30.12,ENE,68,6.2,9.2,60,0.00,CLR,SCT,0.00,0.0,WeatherDisplay:10.37,2013-03-08 05:53:00,
2013-03-07 23:58:00,32.7,20.4,30.12,East,90,4.9,8.1,60,0.00,CLR,SCT,0.00,0.0,WeatherDisplay:10.37,2013-03-08 05:58:00,